Temperature
18 18 18 18 18 18 18 18 18 18 18 18 18 18 18 18 18 18 18 18 18 18 18 17 17 17 17 17 17 17 17 17 17 17 17 17 17 16 16 16 16 16 16
18 18 18 18 18 18 18 18 18 18 18 18 18 18 18 18 18 17 18 18 18 18 18 18 17 17 17 17 17 17 17 17 17 17 17 16 16 16 16 16 16 16 16
18 18 18 18 18 18 18 18 18 18 18 18 18 18 18 18 18 18 18 18 18 18 18 17 17 17 17 17 17 17 17 17 17 17 17 16 16 16 16 16 16 16 16
18 18 18 18 18 18 18 18 18 18 18 18 18 18 18 18 18 18 18 18 17 17 17 17 17 17 17 17 17 17 17 17 17 17 17 16 16 16 16 16 16 16 16
18 18 18 18 18 18 18 18 18 18 18 18 18 18 18 18 18 18 18 17 17 17 17 17 17 17 17 17 17 17 17 17 17 17 17 16 16 16 16 16 16 16 16
18 18 18 18 18 18 18 18 18 18 18 18 18 18 18 18 18 18 18 18 17 17 17 17 17 17 17 17 17 17 17 17 17 17 17 16 16 16 16 16 16 16 16
18 18 18 18 18 18 18 17 18 18 18 18 18 18 18 18 18 18 18 18 18 17 17 17 17 17 17 17 17 17 17 17 17 17 17 16 16 16 16 16 16 16 16
18 18 18 18 18 18 17 17 18 18 18 18 18 18 19 19 18 18 18 18 17 17 17 17 17 17 17 17 17 17 17 17 17 17 17 17 16 16 16 16 16 16 16
18 18 18 18 18 17 18 18 18 17 17 17 17 18 19 19 18 18 18 17 17 17 17 17 17 17 17 17 17 17 17 17 17 17 17 17 17 16 16 16 16 16 16
18 18 18 18 18 18 18 17 18 17 17 17 17 17 17 18 18 18 18 18 17 17 17 17 17 17 17 17 17 17 17 17 17 17 16 16 16 16 16 16 16 16 16
18 18 18 18 18 18 18 18 17 17 17 17 17 17 17 17 17 18 18 18 18 17 17 17 17 17 17 16 16 16 17 17 16 16 16 16 16 16 16 16 16 16 16
18 18 18 18 18 18 18 18 17 17 17 17 17 17 17 17 18 18 18 18 18 17 17 17 17 16 16 16 16 16 17 17 16 16 16 16 16 16 16 16 16 16 16
18 18 18 18 18 18 18 17 17 17 17 17 17 17 17 17 17 17 17 18 17 17 17 17 17 16 16 16 16 16 16 16 16 16 16 16 16 16 16 16 16 15 15
18 18 18 18 18 18 18 17 17 17 17 17 17 17 17 17 17 17 17 17 17 18 17 17 17 16 16 16 16 16 16 16 16 16 16 16 16 16 16 16 16 15 15
18 18 18 18 18 18 18 17 17 17 17 17 17 17 17 17 17 17 17 17 17 18 18 17 17 16 16 16 16 16 15 16 16 16 16 16 16 16 16 15 15 15 15
18 18 18 18 18 18 18 18 17 17 17 17 17 17 17 17 17 17 17 17 17 17 17 17 17 16 16 16 15 15 15 16 16 16 16 16 15 15 15 15 15 15 15
18 18 18 18 18 18 18 17 17 17 17 17 17 17 17 17 17 17 17 16 16 16 17 17 16 16 15 15 15 15 15 15 15 15 15 15 15 15 15 15 15 15 15
18 18 18 18 18 18 17 17 17 17 17 17 17 17 17 17 16 16 16 16 16 16 16 16 16 16 15 15 15 15 15 15 15 15 15 15 15 15 15 15 15 15 14
18 18 18 18 18 18 17 17 17 17 17 17 17 17 17 16 16 16 16 16 16 16 16 16 16 15 15 15 15 15 14 14 14 15 15 15 15 15 15 14 14 14 14
18 18 18 18 18 17 17 17 17 17 17 16 16 16 16 16 16 16 16 16 16 16 15 15 15 15 15 15 14 14 15 14 14 14 14 14 14 14 14 14 14 14 14
18 18 18 18 17 17 17 17 17 17 16 16 16 16 16 16 16 16 16 16 16 15 15 15 15 15 15 14 14 14 14 14 14 14 14 14 14 13 13 13 13 13 13
17 17 17 17 17 17 17 17 17 16 16 16 16 16 16 16 16 16 16 16 15 15 15 15 15 14 14 14 14 14 14 14 14 14 13 13 13 13 13 13 13 13 13
17 17 17 17 17 17 17 17 17 16 16 16 16 16 15 15 15 15 15 15 15 15 15 14 14 14 14 14 14 14 13 13 13 13 13 13 13 13 13 13 13 13 13
17 17 17 17 17 17 17 17 17 16 16 16 15 15 15 15 15 15 15 14 14 14 14 14 14 14 14 14 14 13 13 13 13 13 13 13 13 13 13 12 12 12 12
16 16 16 16 16 16 16 16 16 16 15 15 15 15 15 15 15 15 14 14 14 14 14 14 14 14 14 14 13 13 13 13 13 13 12 12 12 12 12 12 12 12 12
16 16 16 15 15 16 16 16 16 15 15 15 14 14 14 14 14 14 14 13 13 13 13 13 13 13 13 13 13 13 13 13 13 13 12 12 12 12 12 12 12 12 12
Wind_Speed
3 3 3 2 2 2 3 2 2 1 1 2 2 2 2 2 2 2 5 8 7 7 7 7 6 6 6 6 6 7 8 8 8 8 9 8 8 8 8 8 8 8 9
3 3 2 2 1 1 1 1 1 1 1 0 1 1 2 2 2 3 3 7 9 8 7 7 7 6 6 6 7 8 8 9 8 8 9 9 9 9 9 9 9 9 9
3 2 2 2 1 1 1 1 1 1 1 1 1 1 2 2 2 3 3 3 6 9 9 8 7 7 7 7 8 9 10 10 10 10 10 11 10 10 10 10 10 10 10
3 2 2 1 1 1 1 1 1 1 0 0 0 1 1 1 2 3 3 3 3 4 7 8 8 8 8 8 9 9 10 10 10 10 11 12 12 12 11 11 11 11 11
3 3 2 1 1 1 1 1 0 1 0 1 1 1 1 1 2 2 2 2 3 3 3 6 8 8 8 8 9 9 9 10 10 10 11 12 12 12 12 12 12 12 12
4 3 3 2 2 1 1 0 0 0 1 1 2 1 1 1 2 1 2 2 2 3 3 2 4 7 10 9 9 8 8 8 10 10 11 11 12 12 12 12 12 12 12
4 3 2 2 2 2 1 2 1 1 1 0 1 1 1 1 1 2 2 1 2 2 2 3 3 3 4 9 8 7 7 7 8 10 10 11 11 12 12 12 12 12 13
5 5 4 3 3 3 3 3 2 2 1 1 2 2 2 3 2 2 2 2 1 2 2 3 3 3 4 3 5 7 7 7 7 8 9 10 11 12 12 13 13 13 13
5 4 4 4 4 4 3 3 3 3 2 2 2 3 2 1 0 2 2 2 2 1 2 1 2 2 3 3 2 5 6 6 6 6 7 8 10 11 11 12 12 12 14
5 5 5 5 4 4 3 5 4 3 3 3 3 3 3 2 2 1 2 3 2 2 2 2 2 2 3 3 2 1 4 4 5 6 6 7 7 8 9 10 11 12 13
5 5 5 5 5 5 4 4 3 4 4 4 3 2 3 3 5 4 3 2 2 2 2 2 2 2 2 2 2 1 3 3 4 5 6 7 7 7 7 8 10 12 13
5 6 6 5 5 5 5 5 5 6 5 4 4 4 4 4 4 4 4 4 3 2 2 2 3 2 2 2 1 3 3 3 3 4 5 5 5 6 6 7 8 9 10
5 6 6 5 5 5 5 5 6 5 5 5 5 5 4 5 4 4 4 4 4 3 3 3 3 3 2 2 1 3 4 4 4 4 4 5 5 5 6 6 7 8 8
5 5 6 6 6 6 7 6 6 6 5 6 6 5 5 5 4 5 5 4 4 4 4 3 2 3 2 2 1 3 3 5 5 5 5 5 5 6 5 5 6 7 8
6 6 6 7 7 7 7 7 6 6 5 6 7 7 6 5 5 5 5 5 5 5 4 3 3 3 3 3 2 3 3 3 4 5 5 5 5 5 5 5 5 5 6
7 7 7 7 7 7 7 7 7 6 7 7 6 6 6 6 5 5 5 5 6 6 6 3 3 3 2 3 3 4 4 4 6 6 6 5 4 5 5 4 4 5 4
8 8 8 8 8 8 8 8 8 7 8 8 7 7 7 7 6 5 5 6 6 6 6 5 4 3 4 5 3 4 5 5 4 7 7 6 5 5 5 5 4 5 4
10 9 9 9 9 9 8 9 9 8 9 8 8 7 8 6 7 7 6 7 6 5 6 6 5 5 5 5 4 5 5 5 4 5 8 7 6 6 5 5 5 5 5
10 9 9 10 9 9 9 9 9 9 8 8 8 8 7 7 7 6 7 7 6 6 6 6 6 4 5 4 4 5 5 4 5 4 8 8 7 6 6 6 6 5 5
10 10 10 10 9 9 9 9 9 8 9 8 8 8 8 8 8 7 7 7 6 6 6 6 5 5 4 4 5 5 5 4 5 4 2 3 6 8 7 6 5 5 4
10 9 10 9 10 9 8 9 8 8 8 8 8 7 7 6 6 6 6 6 6 6 6 6 6 5 5 5 5 5 5 4 4 4 3 3 4 4 5 6 5 4 4
9 8 9 9 9 8 5 7 8 8 7 7 7 7 7 7 5 5 5 5 6 7 7 6 6 6 6 6 5 5 5 5 4 3 3 4 3 3 2 2 5 5 4
8 8 8 8 7 6 5 6 8 7 7 6 6 6 6 4 4 5 5 6 6 5 6 7 8 7 6 5 5 6 5 5 5 3 4 5 3 3 3 2 7 6 5
7 6 6 6 6 5 5 6 7 7 6 6 5 5 5 4 3 3 4 4 4 4 4 5 5 6 5 4 5 6 5 5 5 4 4 4 3 3 3 3 8 7 6
5 6 5 5 5 4 4 5 5 5 5 5 5 5 5 5 2 3 4 4 3 3 1 1 1 1 1 1 2 3 4 4 4 3 3 4 3 3 3 3 5 8 7
5 5 4 4 5 4 4 5 6 5 5 5 4 4 4 3 3 4 5 4 4 3 2 2 2 3 3 3 5 4 4 4 3 3 1 3 3 3 3 3 2 4 5
Wind_Direction
142 137 134 141 156 137 159 161 160 155 191 194 207 192 206 205 217 207 160 169 187 196 197 196 200 208 209 212 210 206 205 206 209 209 206 204 204 206 207 207 208 208 207
139 151 153 156 155 172 152 177 165 189 239 224 224 210 230 217 193 222 198 174 185 193 198 204 209 211 215 217 215 211 212 213 216 216 212 209 209 212 214 214 213 212 212
150 169 156 176 164 181 169 213 191 208 217 182 172 228 234 231 201 217 220 203 187 188 197 209 215 216 218 222 222 220 217 218 220 220 218 215 215 216 220 219 218 216 215
179 198 180 174 151 190 201 216 238 224 234 276 232 266 245 207 215 220 219 210 207 195 189 199 213 220 224 227 231 229 224 222 223 223 220 219 218 219 222 224 222 220 218
188 205 188 138 194 198 215 263 57 304 262 299 250 212 251 235 228 226 222 215 202 206 199 176 202 215 222 228 232 235 233 229 225 225 227 227 225 223 224 226 226 222 222
198 209 191 175 223 209 205 224 64 331 294 307 317 357 277 239 229 213 222 199 183 196 213 202 199 206 211 222 230 233 230 229 226 226 230 232 231 228 226 227 229 226 225
207 214 221 181 217 212 219 223 211 207 219 215 274 265 216 192 191 182 202 216 183 199 214 217 230 246 208 201 214 226 227 234 235 234 234 234 232 229 228 230 231 229 228
213 205 207 217 213 211 211 212 210 251 252 227 268 276 237 185 178 164 183 191 223 211 220 222 235 245 268 240 191 202 220 232 242 245 240 236 234 233 232 230 230 231 232
214 222 210 223 224 232 220 221 220 226 249 244 252 273 283 280 274 179 188 200 211 258 265 249 248 252 252 257 225 182 200 223 237 246 244 241 239 236 234 233 231 231 233
217 219 218 224 233 239 229 231 218 233 238 251 241 255 276 306 279 244 206 190 204 236 268 281 287 253 250 249 212 148 179 215 235 245 247 246 241 238 236 235 233 234 234
218 221 218 224 230 238 237 242 235 237 237 245 254 245 239 241 247 263 265 255 238 238 250 267 283 283 262 247 240 164 160 205 239 247 250 250 246 243 238 239 241 241 241
215 215 216 219 225 233 228 229 230 228 239 248 253 248 246 249 247 253 258 250 252 245 246 264 257 254 247 243 217 109 153 189 222 239 244 248 248 242 239 241 245 247 248
216 212 217 215 223 226 231 232 231 239 234 237 240 242 248 253 251 252 256 264 271 256 233 236 233 242 240 233 192 150 175 200 215 226 233 238 245 252 254 252 250 252 254
227 214 215 218 221 226 233 232 237 232 228 234 241 244 245 249 248 245 247 257 263 257 237 241 239 232 243 245 199 198 210 199 216 229 237 240 243 246 251 253 255 255 252
228 218 218 220 222 225 232 236 240 239 237 240 240 233 238 242 243 245 243 246 257 266 261 227 234 216 234 242 216 241 248 202 209 225 230 233 236 244 249 248 247 247 244
232 227 221 222 224 224 226 232 238 237 239 243 248 251 248 247 242 242 241 240 245 255 265 254 243 237 252 265 223 247 252 217 212 217 222 223 228 238 242 237 242 239 233
229 229 229 228 228 228 228 230 237 237 239 243 246 243 244 252 247 243 238 238 241 243 251 261 258 242 243 261 259 263 259 251 226 199 209 219 229 233 231 231 235 233 232
231 229 230 230 232 231 229 231 235 235 238 242 245 247 248 245 242 248 244 243 242 245 250 259 260 252 244 247 252 260 260 254 258 187 192 209 218 220 226 232 234 233 232
233 234 231 232 235 234 231 231 235 237 240 243 244 243 244 245 245 244 244 243 243 243 247 254 257 258 258 254 259 259 259 257 258 214 193 199 204 213 226 229 229 229 229
232 233 234 233 234 234 233 232 235 239 241 242 242 242 242 240 240 240 241 241 243 247 245 249 255 254 255 253 254 257 254 245 258 255 223 211 197 204 213 213 212 215 223
236 234 234 234 234 234 235 232 234 237 240 242 240 243 246 248 257 254 254 246 244 246 246 247 250 254 250 246 251 258 263 264 251 248 247 236 208 212 201 197 194 195 210
238 236 233 233 235 237 226 226 233 235 237 239 239 240 243 241 242 236 249 254 252 247 250 253 252 253 251 250 252 256 258 261 260 241 254 258 243 240 229 212 162 172 192
234 235 236 232 232 233 212 215 222 230 235 236 237 239 247 245 240 251 234 228 237 241 249 257 259 261 260 254 250 250 252 265 270 266 254 252 241 241 229 173 149 170 189
233 230 232 231 230 223 194 201 209 223 233 233 234 233 238 244 244 241 246 241 242 244 242 246 256 263 265 258 246 248 254 253 251 244 246 258 250 252 244 193 164 175 190
233 228 225 229 230 215 174 184 198 221 221 229 230 229 226 228 211 229 228 233 240 244 228 193 250 273 300 235 248 252 243 241 248 243 232 259 260 256 247 227 176 177 192
231 229 223 225 219 214 175 179 200 219 219 224 221 221 208 208 203 220 220 221 232 241 240 222 193 199 214 199 199 229 246 252 257 253 223 259 258 256 245 223 221 206 204
Height
1556 1557 1557 1558 1560 1561 1561 1562 1562 1563 1563 1564 1564 1564 1565 1565 1566 1566 1566 1565 1566 1566 1566 1567 1567 1567 1567 1568 1568 1568 1568 1569 1569 1570 1570 1571 1571 1571 1572 1573 1573 1574 1575
1556 1557 1558 1558 1560 1560 1561 1562 1562 1562 1563 1563 1563 1564 1564 1565 1564 1564 1565 1564 1564 1565 1565 1565 1566 1566 1566 1566 1567 1567 1567 1568 1568 1568 1569 1569 1570 1570 1571 1571 1572 1572 1573
1555 1556 1558 1559 1560 1560 1560 1561 1562 1562 1562 1563 1563 1563 1563 1563 1563 1563 1563 1564 1564 1564 1564 1564 1564 1565 1565 1565 1565 1566 1566 1566 1566 1566 1567 1567 1568 1568 1569 1569 1570 1570 1571
1555 1556 1558 1559 1559 1560 1560 1561 1561 1562 1561 1562 1561 1562 1562 1561 1561 1561 1562 1562 1563 1563 1563 1563 1563 1563 1563 1563 1564 1564 1564 1564 1565 1565 1565 1565 1566 1566 1567 1567 1568 1568 1569
1555 1556 1558 1558 1559 1560 1560 1560 1560 1560 1561 1560 1560 1560 1560 1560 1560 1560 1561 1561 1561 1561 1562 1561 1561 1561 1561 1562 1562 1562 1562 1562 1563 1563 1563 1563 1564 1564 1564 1565 1565 1566 1567
1555 1556 1557 1557 1558 1559 1559 1559 1559 1559 1559 1559 1560 1560 1559 1560 1560 1559 1559 1560 1560 1560 1560 1560 1559 1559 1559 1559 1559 1560 1560 1560 1560 1561 1561 1561 1561 1562 1562 1562 1563 1563 1564
1555 1555 1557 1557 1557 1558 1558 1558 1559 1559 1559 1559 1559 1559 1559 1559 1558 1558 1558 1559 1559 1559 1559 1559 1558 1558 1558 1557 1557 1557 1557 1558 1558 1558 1558 1558 1558 1559 1559 1559 1560 1561 1561
1554 1555 1555 1556 1556 1556 1556 1557 1557 1558 1558 1558 1558 1558 1558 1559 1557 1557 1557 1557 1558 1558 1558 1558 1557 1556 1556 1556 1555 1555 1555 1555 1555 1556 1556 1555 1555 1556 1556 1557 1557 1557 1558
1553 1553 1554 1554 1555 1555 1556 1556 1556 1556 1557 1557 1557 1558 1558 1556 1557 1557 1556 1556 1556 1556 1557 1556 1555 1555 1554 1554 1554 1553 1553 1553 1553 1553 1553 1553 1552 1552 1553 1553 1553 1554 1555
1551 1552 1552 1552 1553 1554 1554 1554 1555 1555 1555 1556 1556 1556 1556 1556 1556 1555 1555 1555 1554 1554 1554 1555 1554 1553 1552 1552 1551 1551 1550 1550 1550 1550 1550 1550 1549 1549 1549 1550 1550 1551 1551
1549 1550 1550 1550 1551 1552 1552 1552 1553 1553 1554 1554 1554 1554 1554 1554 1554 1554 1553 1554 1553 1553 1552 1552 1552 1552 1551 1550 1549 1548 1548 1548 1548 1547 1547 1546 1546 1546 1547 1547 1547 1548 1547
1547 1548 1548 1548 1549 1550 1550 1550 1550 1551 1551 1551 1552 1552 1553 1553 1552 1552 1552 1551 1551 1551 1550 1550 1550 1549 1549 1548 1547 1546 1545 1545 1545 1544 1544 1543 1543 1544 1544 1544 1544 1544 1544
1545 1545 1546 1546 1546 1547 1547 1548 1548 1549 1549 1549 1549 1550 1550 1550 1550 1550 1550 1549 1549 1549 1548 1548 1547 1547 1547 1546 1545 1544 1543 1543 1542 1541 1541 1541 1541 1541 1541 1541 1541 1541 1541
1542 1543 1543 1543 1543 1544 1545 1545 1546 1546 1546 1546 1547 1547 1547 1547 1548 1548 1548 1547 1547 1546 1546 1546 1546 1545 1545 1544 1543 1542 1541 1540 1539 1539 1538 1538 1538 1538 1537 1537 1537 1537 1537
1539 1539 1540 1540 1541 1541 1542 1542 1543 1543 1543 1544 1544 1544 1544 1544 1544 1544 1545 1545 1545 1544 1544 1543 1543 1543 1542 1541 1540 1539 1539 1538 1537 1536 1535 1535 1534 1534 1534 1533 1533 1533 1533
1535 1536 1536 1537 1538 1538 1538 1539 1540 1540 1540 1540 1540 1541 1541 1541 1542 1541 1541 1541 1541 1542 1541 1541 1541 1540 1539 1539 1538 1537 1536 1535 1534 1533 1532 1532 1531 1531 1530 1530 1530 1530 1529
1531 1532 1533 1534 1534 1535 1535 1535 1536 1536 1537 1537 1537 1537 1537 1538 1538 1538 1538 1538 1538 1538 1538 1537 1538 1537 1536 1535 1535 1534 1533 1532 1531 1530 1529 1528 1528 1527 1527 1527 1526 1526 1526
1527 1528 1529 1530 1530 1531 1531 1531 1532 1532 1533 1533 1534 1534 1534 1535 1534 1535 1535 1535 1535 1534 1534 1534 1534 1533 1533 1532 1531 1530 1530 1529 1528 1527 1526 1525 1524 1524 1523 1523 1523 1523 1523
1523 1524 1525 1525 1526 1526 1527 1527 1528 1528 1529 1529 1529 1530 1530 1530 1530 1530 1530 1531 1531 1531 1530 1530 1530 1529 1529 1528 1527 1526 1526 1525 1524 1524 1522 1521 1521 1520 1520 1520 1519 1519 1519
1518 1519 1520 1520 1521 1522 1522 1522 1523 1524 1524 1525 1525 1526 1526 1526 1525 1525 1526 1526 1526 1526 1526 1526 1526 1525 1525 1524 1523 1523 1522 1522 1521 1520 1519 1518 1517 1517 1516 1516 1516 1516 1516
1513 1514 1515 1515 1516 1517 1517 1518 1518 1519 1519 1520 1520 1521 1522 1522 1522 1522 1522 1522 1522 1522 1522 1522 1521 1521 1520 1520 1520 1519 1519 1518 1517 1517 1516 1515 1515 1514 1513 1512 1512 1512 1512
1509 1509 1510 1510 1511 1512 1512 1513 1513 1514 1514 1515 1516 1516 1517 1517 1517 1517 1517 1517 1517 1517 1517 1517 1517 1516 1516 1516 1515 1515 1515 1515 1514 1514 1513 1512 1512 1511 1510 1510 1509 1509 1509
1504 1504 1505 1506 1506 1506 1507 1508 1508 1509 1510 1510 1511 1512 1512 1513 1513 1513 1512 1512 1512 1512 1512 1513 1512 1512 1511 1511 1510 1510 1510 1511 1510 1510 1510 1509 1509 1508 1508 1507 1506 1506 1506
1499 1499 1500 1501 1501 1502 1502 1503 1504 1505 1505 1506 1507 1507 1508 1508 1509 1508 1508 1508 1508 1508 1508 1508 1508 1507 1507 1507 1506 1507 1506 1506 1506 1506 1506 1506 1506 1505 1505 1505 1504 1504 1504
1494 1495 1496 1496 1497 1498 1498 1499 1500 1500 1501 1502 1503 1503 1504 1504 1504 1504 1504 1504 1504 1504 1504 1504 1503 1503 1503 1503 1503 1503 1503 1504 1504 1504 1503 1503 1503 1503 1503 1502 1502 1501 1501
1491 1492 1492 1493 1493 1494 1495 1496 1496 1497 1497 1498 1499 1499 1500 1500 1501 1501 1501 1501 1500 1501 1501 1500 1499 1499 1499 1499 1499 1500 1500 1501 1501 1501 1500 1500 1501 1501 1501 1500 1500 1499 1499